SCP
-0 0 0 0 0 0 0 0 0 0 -0 0 0 0 0 0 0 -0 -0 -0 -0 -0 -0 -0 -0 -0 -0 -0 -0 0 0 -0 -0 -0 -0 0 0 0 0 -0 -0 -0 -0
0 0 -0 0 0 0 0 0 0 -0 -0 0 0 0 -0 0 -0 -0 -0 0 0 0 -0 -0 -0 0 0 -0 -0 0 0 0 0 0 -0 0 0 0 0 0 0 -0 -0
0 -0 0 0 0 0 0 0 0 -0 0 0 0 -0 0 0 0 0 0 0 0 0 0 0 -0 0 -0 -0 0 0 0 0 0 0 0 0 -0 0 0 0 -0 -0 -0
0 0 0 0 0 0 0 -0 -0 -0 -0 0 0 0 -0 -0 0 0 0 0 0 0 0 -0 -0 -0 0 -0 -0 0 -0 -0 0 0 -0 -0 0 0 0 -0 -0 -0 -0
0 0 0 0 0 0 0 -0 -0 -0 0 0 0 0 -0 -0 -0 -0 0 0 0 0 0 0 0 -0 0 -0 0 0 0 0 0 -0 -0 0 0 0 -0 -0 -0 0 0
0 0 0 0 0 0 0 -0 -0 0 0 0 0 0 -0 -0 -0 0 0 0 0 0 0 0 0 -0 -0 -0 -0 -0 0 -0 -0 0 -0 -0 0 -0 0 -0 -0 -0 -0
0 0 0 0 0 0 -0 -0 0 0 0 0 0 0 0 0 0 0 0 0 0 0 0 0 0 0 0 0 0 -0 -0 0 -0 0 0 -0 -0 0 0 -0 -0 -0 -0
0 0 0 0 0 -0 0 0 0 0 0 0 0 0 0 0 0 0 0 0 0 0 0 0 0 0 0 0 0 0 0 0 -0 0 0 0 -0 -0 -0 -0 -0 -0 -0
0 0 -0 0 -0 0 0 0 0 0 0 0 0 0 0 0 0 0 0 0 0 0 0 0 0 0 0 0 0 0 0 0 -0 0 0 0 0 0 -0 -0 -0 -0 -0
0 0 -0 -0 -0 0 0 0 0 0 0 0 0 0 0 0 0 0 0 0 0 0 0 0 0 0 0 0 0 0 0 0 -0 -0 -0 -0 -0 -0 -0 -0 -0 -0 -0
0 0 -0 -0 -0 0 0 -0 0 0 0 0 0 0 0 0 0 0 0 0 0 0 0 0 0 0 0 0 0 0 0 0 0 -0 -0 -0 -0 -0 -0 -0 -0 -0 -0
0 0 -0 -0 -0 0 0 -0 0 0 0 0 0 0 0 0 0 0 0 0 0 0 0 0 0 0 -0 0 0 0 0 -0 0 -0 -0 -0 -0 -0 -0 -0 -0 -0 -0
-0 -0 -0 -0 -0 0 0 0 0 0 0 0 0 0 0 0 0 0 0 0 0 0 0 0 0 0 -0 0 0 0 0 0 0 -0 -0 -0 -0 -0 -0 -0 -0 -0 -0
-0 -0 -0 -0 -0 0 0 0 0 0 0 0 0 0 0 0 0 0 0 -0 0 -0 -0 0 0 0 0 0 0 0 0 0 0 0 -0 -0 -0 -0 -0 -0 -0 -0 -0
-0 -0 -0 -0 -0 0 0 0 0 0 0 0 0 -0 0 0 0 0 0 0 -0 0 0 0 0 0 0 0 0 0 0 0 0 0 -0 0 0 0 -0 -0 -0 -0 -0
-0 -0 -0 -0 -0 -0 0 0 0 0 0 0 -0 -0 -0 0 0 -0 0 -0 -0 -0 -0 -0 0 0 0 0 0 0 0 0 0 -0 -0 -0 0 0 0 -0 -0 -0 -0
0 -0 -0 -0 -0 -0 0 0 0 -0 0 -0 -0 -0 -0 0 0 0 -0 0 -0 -0 -0 0 0 0 0 0 0 0 0 0 -0 -0 0 0 -0 0 0 0 -0 -0 -0
0 -0 -0 -0 -0 -0 -0 -0 0 -0 0 -0 -0 -0 -0 0 0 0 0 -0 -0 0 0 -0 -0 0 0 0 0 0 0 -0 0 -0 -0 0 -0 -0 -0 -0 0 -0 -0
-0 -0 -0 -0 -0 -0 -0 -0 -0 -0 -0 -0 -0 -0 -0 0 0 -0 -0 -0 -0 -0 0 -0 0 -0 0 0 0 0 0 -0 0 0 -0 -0 -0 -0 -0 -0 -0 -0 -0
-0 -0 -0 -0 -0 -0 -0 -0 -0 -0 -0 -0 0 0 -0 -0 -0 -0 0 0 0 0 0 0 -0 0 0 0 0 0 -0 -0 -0 0 -0 -0 0 -0 0 -0 -0 -0 -0
-0 0 0 0 -0 -0 -0 -0 -0 0 0 0 0 0 -0 0 0 -0 -0 -0 -0 0 -0 0 0 0 0 0 0 0 0 -0 -0 0 0 -0 0 0 0 0 -0 -0 -0
0 0 0 0 0 -0 -0 -0 0 0 0 0 -0 -0 0 0 0 0 -0 -0 -0 -0 0 0 0 0 0 0 0 0 0 -0 -0 0 -0 0 0 -0 -0 0 0 0 0
0 0 0 0 -0 -0 0 -0 0 0 0 0 0 -0 -0 -0 -0 -0 -0 -0 -0 0 0 0 0 0 -0 0 0 -0 0 0 0 -0 -0 0 0 0 -0 0 0 0 0
-0 -0 0 0 0 -0 -0 -0 0 0 0 0 0 0 -0 -0 0 -0 0 0 0 0 -0 -0 0 0 0 0 0 0 -0 0 0 -0 -0 -0 -0 0 0 0 0 0 0
-0 0 -0 -0 -0 0 -0 -0 0 0 0 -0 -0 0 -0 -0 -0 0 0 0 0 0 0 -0 0 0 0 -0 0 0 0 0 0 0 0 -0 -0 0 0 0 0 0 -0
0 -0 -0 -0 -0 -0 0 -0 -0 0 0 -0 0 0 -0 -0 -0 -0 0 0 0 0 0 0 -0 0 0 0 0 0 0 0 0 -0 -0 0 -0 -0 -0 -0 0 -0 -0
Wind_Speed_500mb
64 56 67 56 43 48 45 45 46 43 39 34 29 24 21 21 20 19 19 18 17 17 17 18 17 16 16 15 16 16 13 11 11 12 15 15 14 14 17 22 27 11 20
62 63 53 43 45 44 45 47 46 42 37 32 26 23 22 21 20 19 18 20 18 17 18 19 19 17 19 23 23 23 17 13 13 15 19 16 14 16 20 25 31 15 20
49 54 50 50 46 47 45 46 43 38 34 29 25 24 22 22 18 20 18 19 17 17 18 17 18 18 18 17 13 13 20 20 19 22 30 16 11 17 19 18 16 20 23
53 45 52 50 49 49 46 44 40 35 31 28 25 24 22 19 19 20 18 16 15 15 17 17 17 17 17 17 14 12 15 19 20 24 20 12 11 18 18 16 16 18 17
47 44 51 51 52 49 45 41 37 34 31 28 25 22 19 18 21 24 22 19 17 16 18 18 16 14 15 14 15 16 13 16 19 22 18 18 13 13 15 16 16 19 24
45 43 54 55 51 46 41 38 35 33 30 27 24 21 19 19 21 23 19 17 16 18 20 19 18 18 16 15 15 13 12 13 26 14 13 18 17 14 19 20 17 17 16
50 47 49 52 49 44 39 36 33 31 29 25 23 21 18 19 20 18 19 20 22 23 24 25 23 21 19 15 11 12 13 16 11 13 15 11 9 19 21 19 17 17 18
51 49 47 50 46 42 38 33 31 28 25 22 21 20 19 17 19 21 20 21 23 24 26 26 25 22 20 18 18 13 10 19 15 11 15 14 13 19 15 16 17 17 17
50 48 43 41 44 40 37 32 28 25 23 19 20 18 18 16 17 18 19 18 19 21 22 23 23 22 21 16 18 23 17 20 13 8 11 11 14 16 10 16 16 14 15
51 47 43 38 35 32 32 30 25 23 21 20 21 19 18 19 19 19 18 14 18 19 17 16 17 17 18 21 15 17 18 21 10 13 13 11 12 13 10 14 14 14 14
50 48 43 40 35 30 25 26 24 22 22 21 19 17 18 11 11 13 11 12 13 12 11 15 15 16 16 15 15 13 21 5 11 11 8 11 12 13 12 12 12 11 12
54 50 45 41 36 31 25 24 21 18 14 14 14 13 13 9 8 10 6 8 8 6 9 7 10 17 16 8 11 18 10 8 12 11 7 10 12 13 13 9 9 9 9
53 50 46 42 36 32 27 23 19 18 16 14 18 15 9 6 2 2 3 4 3 7 7 8 6 8 6 6 11 9 6 11 7 9 3 9 12 13 11 10 11 8 8
52 50 45 42 38 35 27 24 21 20 18 16 14 15 9 3 3 4 5 4 6 1 2 5 1 5 5 6 7 11 8 5 7 9 11 11 7 11 11 10 10 8 8
52 49 46 42 40 38 36 26 24 23 20 18 16 15 9 8 7 3 4 5 3 7 3 6 3 3 5 1 6 6 9 2 5 5 0 10 7 5 7 8 7 8 9
50 49 45 44 41 40 37 35 27 24 22 20 18 15 16 12 8 5 2 2 2 1 2 2 4 3 4 1 4 3 7 5 4 9 3 7 7 2 3 7 9 6 7
51 47 47 45 42 42 41 40 32 25 23 21 19 21 16 15 9 7 2 2 3 6 4 5 8 3 3 3 3 4 4 4 4 8 4 3 6 4 4 6 5 8 9
50 50 47 44 43 43 41 41 33 28 27 24 22 19 20 17 13 7 3 3 6 8 8 3 4 6 0 6 3 4 6 6 4 2 0 2 4 5 4 5 9 10 6
54 50 49 46 44 44 46 41 38 34 35 26 26 23 22 20 18 13 9 7 7 2 2 2 6 5 5 2 5 4 2 8 4 5 6 5 5 5 6 11 4 7 5
54 52 50 48 47 47 42 47 35 35 35 31 30 26 26 25 22 20 20 14 6 11 5 6 6 4 2 3 5 1 8 6 6 5 5 4 2 7 7 13 10 9 8
56 55 55 56 57 54 52 45 43 40 37 35 34 33 30 30 27 22 17 17 15 9 5 6 5 7 5 7 5 8 8 7 10 11 10 6 3 5 3 5 8 5 14
64 62 59 63 63 64 56 53 45 41 38 38 34 32 37 32 28 23 21 16 15 12 11 7 5 5 5 2 4 9 12 10 11 11 8 4 6 5 3 2 5 7 8
68 66 63 65 63 63 57 50 48 41 40 40 40 36 35 38 34 31 24 23 19 17 13 8 9 7 5 5 9 6 8 7 16 10 8 6 6 5 4 8 8 7 9
72 68 67 66 67 60 64 51 58 54 47 44 39 36 36 38 38 34 31 25 26 18 18 12 11 11 7 5 6 11 10 8 12 13 12 12 9 6 7 4 3 6 9
73 70 66 67 72 68 67 64 56 59 49 37 38 37 42 39 45 39 33 29 29 26 24 19 17 11 10 10 9 9 14 12 12 8 12 14 14 14 11 8 7 5 6
71 68 64 68 78 76 74 73 72 61 58 44 43 37 35 32 36 43 40 38 37 33 28 23 22 17 15 14 12 16 13 12 11 14 13 11 15 14 16 15 13 12 10
Wind_Direction_500mb
141 143 144 145 139 138 139 137 139 139 137 132 124 115 106 102 96 93 91 91 89 100 110 115 112 108 97 89 90 85 89 110 126 127 125 121 118 105 115 116 80 113 118
141 145 151 150 140 141 141 135 136 135 134 128 120 114 109 102 94 95 92 89 89 88 107 108 106 94 91 94 93 77 77 98 119 116 125 111 114 111 119 123 130 128 118
143 143 139 143 144 143 141 138 138 135 131 125 122 119 111 100 101 102 101 98 90 88 95 102 101 92 97 96 97 71 65 85 108 107 100 139 116 115 126 129 127 125 121
144 144 143 145 146 146 141 140 137 135 131 128 126 118 106 102 103 97 93 92 87 90 96 100 103 108 102 91 79 79 79 73 96 89 82 114 114 124 119 125 128 116 126
144 137 145 147 148 145 142 139 137 134 132 130 125 119 108 101 95 90 94 92 87 87 88 93 104 111 106 92 76 74 80 76 84 78 119 118 117 123 130 116 101 112 106
145 142 142 147 147 144 142 140 139 137 134 130 128 123 113 101 97 101 93 85 88 83 88 92 95 97 103 90 84 86 77 75 78 105 80 120 117 108 114 115 129 127 131
147 151 148 150 148 147 143 142 142 139 133 129 127 120 110 104 103 105 90 90 91 87 85 86 84 88 90 88 89 81 83 93 108 104 115 94 136 116 111 107 113 112 114
153 151 155 153 151 149 145 145 144 134 135 135 124 118 112 106 101 101 98 98 99 94 90 84 81 86 89 86 76 79 95 96 92 104 125 121 145 118 113 113 113 110 114
157 157 157 157 156 153 148 149 139 144 142 130 126 120 115 108 104 99 95 96 97 94 87 79 75 79 80 77 77 74 92 107 100 115 104 104 130 122 114 126 123 119 115
161 165 163 163 160 156 157 152 151 151 138 131 129 121 107 99 97 86 79 96 102 100 90 74 71 72 74 69 68 68 69 86 110 92 118 187 145 116 109 125 135 127 117
165 169 171 168 168 163 163 164 162 156 150 136 129 125 98 111 98 75 113 112 112 100 92 78 73 63 62 62 73 71 63 83 94 114 115 148 156 139 138 124 135 136 125
170 174 176 174 177 172 168 176 169 170 163 163 158 157 118 148 136 112 79 84 95 78 57 67 78 66 60 60 45 53 55 101 107 109 159 134 133 157 156 155 157 133 134
175 176 182 181 187 180 179 176 181 182 185 189 175 160 181 142 203 113 128 73 83 22 40 44 46 67 78 82 72 46 57 73 95 108 130 110 119 139 159 163 168 160 152
180 181 185 189 190 186 187 184 189 190 190 188 201 191 184 136 137 122 142 170 81 9 38 68 296 86 74 75 71 48 66 102 85 115 71 67 97 132 135 133 161 166 172
184 185 188 191 193 192 188 191 190 196 202 203 206 207 200 176 201 116 197 138 123 324 79 13 58 18 121 101 64 59 44 36 79 122 289 49 39 86 162 156 156 189 187
188 189 190 192 195 196 195 197 197 198 208 208 213 216 206 200 215 232 118 163 304 12 307 97 33 110 112 102 120 114 23 35 172 123 81 356 10 136 124 192 188 175 199
194 192 194 195 197 199 201 204 203 206 209 212 215 214 198 193 217 166 173 175 287 294 309 26 26 13 33 79 93 359 342 307 315 164 128 330 331 89 118 111 146 197 212
195 196 197 199 203 204 203 205 204 209 209 215 213 217 208 209 215 240 261 244 263 314 313 345 17 93 354 36 269 302 316 174 167 255 99 153 167 197 41 87 114 111 124
197 200 201 202 203 205 206 205 207 211 212 214 213 213 228 232 243 239 236 259 303 310 348 273 34 22 9 6 19 336 75 148 129 129 154 164 157 139 205 271 193 166 134
202 203 205 206 204 207 207 210 210 213 217 215 214 221 234 240 248 246 245 242 287 273 285 272 175 274 5 321 321 137 129 135 144 149 129 189 164 212 216 230 256 248 268
204 205 207 207 210 207 208 208 210 213 215 214 214 221 239 238 246 246 236 243 264 264 246 276 267 324 323 332 114 129 133 119 140 137 130 114 95 145 195 237 211 249 281
205 207 208 211 213 213 212 210 210 213 218 218 222 227 234 232 234 239 241 233 251 263 290 234 228 249 293 5 138 158 160 146 153 156 157 116 110 111 74 84 184 189 184
205 206 208 211 212 216 209 212 213 213 213 221 221 227 228 228 230 237 249 246 253 255 280 278 271 251 269 293 189 188 160 151 169 188 198 187 146 117 87 64 97 108 136
207 208 210 213 215 215 216 212 214 213 216 221 223 228 226 232 234 237 247 251 241 245 245 275 261 224 236 244 218 221 202 154 200 164 211 217 204 194 182 137 114 104 85
206 208 210 213 219 216 219 213 219 217 221 221 223 226 234 232 237 236 236 242 243 243 249 244 266 245 241 209 212 212 215 223 227 243 199 203 229 229 236 214 214 209 165
208 207 209 213 219 220 220 220 221 220 213 217 223 225 227 233 237 240 232 239 238 236 240 254 255 252 231 230 216 213 209 206 226 216 229 235 240 221 233 239 238 229 237
Wind_Speed_850mb
64 56 67 56 43 48 45 45 46 43 39 34 29 24 21 21 20 19 19 18 17 17 17 18 17 16 16 15 16 16 13 11 11 12 15 15 14 14 17 22 27 11 20
62 63 53 43 45 44 45 47 46 42 37 32 26 23 22 21 20 19 18 20 18 17 18 19 19 17 19 23 23 23 17 13 13 15 19 16 14 16 20 25 31 15 20
49 54 50 50 46 47 45 46 43 38 34 29 25 24 22 22 18 20 18 19 17 17 18 17 18 18 18 17 13 13 20 20 19 22 30 16 11 17 19 18 16 20 23
53 45 52 50 49 49 46 44 40 35 31 28 25 24 22 19 19 20 18 16 15 15 17 17 17 17 17 17 14 12 15 19 20 24 20 12 11 18 18 16 16 18 17
47 44 51 51 52 49 45 41 37 34 31 28 25 22 19 18 21 24 22 19 17 16 18 18 16 14 15 14 15 16 13 16 19 22 18 18 13 13 15 16 16 19 24
45 43 54 55 51 46 41 38 35 33 30 27 24 21 19 19 21 23 19 17 16 18 20 19 18 18 16 15 15 13 12 13 26 14 13 18 17 14 19 20 17 17 16
50 47 49 52 49 44 39 36 33 31 29 25 23 21 18 19 20 18 19 20 22 23 24 25 23 21 19 15 11 12 13 16 11 13 15 11 9 19 21 19 17 17 18
51 49 47 50 46 42 38 33 31 28 25 22 21 20 19 17 19 21 20 21 23 24 26 26 25 22 20 18 18 13 10 19 15 11 15 14 13 19 15 16 17 17 17
50 48 43 41 44 40 37 32 28 25 23 19 20 18 18 16 17 18 19 18 19 21 22 23 23 22 21 16 18 23 17 20 13 8 11 11 14 16 10 16 16 14 15
51 47 43 38 35 32 32 30 25 23 21 20 21 19 18 19 19 19 18 14 18 19 17 16 17 17 18 21 15 17 18 21 10 13 13 11 12 13 10 14 14 14 14
50 48 43 40 35 30 25 26 24 22 22 21 19 17 18 11 11 13 11 12 13 12 11 15 15 16 16 15 15 13 21 5 11 11 8 11 12 13 12 12 12 11 12
54 50 45 41 36 31 25 24 21 18 14 14 14 13 13 9 8 10 6 8 8 6 9 7 10 17 16 8 11 18 10 8 12 11 7 10 12 13 13 9 9 9 9
53 50 46 42 36 32 27 23 19 18 16 14 18 15 9 6 2 2 3 4 3 7 7 8 6 8 6 6 11 9 6 11 7 9 3 9 12 13 11 10 11 8 8
52 50 45 42 38 35 27 24 21 20 18 16 14 15 9 3 3 4 5 4 6 1 2 5 1 5 5 6 7 11 8 5 7 9 11 11 7 11 11 10 10 8 8
52 49 46 42 40 38 36 26 24 23 20 18 16 15 9 8 7 3 4 5 3 7 3 6 3 3 5 1 6 6 9 2 5 5 0 10 7 5 7 8 7 8 9
50 49 45 44 41 40 37 35 27 24 22 20 18 15 16 12 8 5 2 2 2 1 2 2 4 3 4 1 4 3 7 5 4 9 3 7 7 2 3 7 9 6 7
51 47 47 45 42 42 41 40 32 25 23 21 19 21 16 15 9 7 2 2 3 6 4 5 8 3 3 3 3 4 4 4 4 8 4 3 6 4 4 6 5 8 9
50 50 47 44 43 43 41 41 33 28 27 24 22 19 20 17 13 7 3 3 6 8 8 3 4 6 0 6 3 4 6 6 4 2 0 2 4 5 4 5 9 10 6
54 50 49 46 44 44 46 41 38 34 35 26 26 23 22 20 18 13 9 7 7 2 2 2 6 5 5 2 5 4 2 8 4 5 6 5 5 5 6 11 4 7 5
54 52 50 48 47 47 42 47 35 35 35 31 30 26 26 25 22 20 20 14 6 11 5 6 6 4 2 3 5 1 8 6 6 5 5 4 2 7 7 13 10 9 8
56 55 55 56 57 54 52 45 43 40 37 35 34 33 30 30 27 22 17 17 15 9 5 6 5 7 5 7 5 8 8 7 10 11 10 6 3 5 3 5 8 5 14
64 62 59 63 63 64 56 53 45 41 38 38 34 32 37 32 28 23 21 16 15 12 11 7 5 5 5 2 4 9 12 10 11 11 8 4 6 5 3 2 5 7 8
68 66 63 65 63 63 57 50 48 41 40 40 40 36 35 38 34 31 24 23 19 17 13 8 9 7 5 5 9 6 8 7 16 10 8 6 6 5 4 8 8 7 9
72 68 67 66 67 60 64 51 58 54 47 44 39 36 36 38 38 34 31 25 26 18 18 12 11 11 7 5 6 11 10 8 12 13 12 12 9 6 7 4 3 6 9
73 70 66 67 72 68 67 64 56 59 49 37 38 37 42 39 45 39 33 29 29 26 24 19 17 11 10 10 9 9 14 12 12 8 12 14 14 14 11 8 7 5 6
71 68 64 68 78 76 74 73 72 61 58 44 43 37 35 32 36 43 40 38 37 33 28 23 22 17 15 14 12 16 13 12 11 14 13 11 15 14 16 15 13 12 10
Wind_Direction_850mb
141 143 144 145 139 138 139 137 139 139 137 132 124 115 106 102 96 93 91 91 89 100 110 115 112 108 97 89 90 85 89 110 126 127 125 121 118 105 115 116 80 113 118
141 145 151 150 140 141 141 135 136 135 134 128 120 114 109 102 94 95 92 89 89 88 107 108 106 94 91 94 93 77 77 98 119 116 125 111 114 111 119 123 130 128 118
143 143 139 143 144 143 141 138 138 135 131 125 122 119 111 100 101 102 101 98 90 88 95 102 101 92 97 96 97 71 65 85 108 107 100 139 116 115 126 129 127 125 121
144 144 143 145 146 146 141 140 137 135 131 128 126 118 106 102 103 97 93 92 87 90 96 100 103 108 102 91 79 79 79 73 96 89 82 114 114 124 119 125 128 116 126
144 137 145 147 148 145 142 139 137 134 132 130 125 119 108 101 95 90 94 92 87 87 88 93 104 111 106 92 76 74 80 76 84 78 119 118 117 123 130 116 101 112 106
145 142 142 147 147 144 142 140 139 137 134 130 128 123 113 101 97 101 93 85 88 83 88 92 95 97 103 90 84 86 77 75 78 105 80 120 117 108 114 115 129 127 131
147 151 148 150 148 147 143 142 142 139 133 129 127 120 110 104 103 105 90 90 91 87 85 86 84 88 90 88 89 81 83 93 108 104 115 94 136 116 111 107 113 112 114
153 151 155 153 151 149 145 145 144 134 135 135 124 118 112 106 101 101 98 98 99 94 90 84 81 86 89 86 76 79 95 96 92 104 125 121 145 118 113 113 113 110 114
157 157 157 157 156 153 148 149 139 144 142 130 126 120 115 108 104 99 95 96 97 94 87 79 75 79 80 77 77 74 92 107 100 115 104 104 130 122 114 126 123 119 115
161 165 163 163 160 156 157 152 151 151 138 131 129 121 107 99 97 86 79 96 102 100 90 74 71 72 74 69 68 68 69 86 110 92 118 187 145 116 109 125 135 127 117
165 169 171 168 168 163 163 164 162 156 150 136 129 125 98 111 98 75 113 112 112 100 92 78 73 63 62 62 73 71 63 83 94 114 115 148 156 139 138 124 135 136 125
170 174 176 174 177 172 168 176 169 170 163 163 158 157 118 148 136 112 79 84 95 78 57 67 78 66 60 60 45 53 55 101 107 109 159 134 133 157 156 155 157 133 134
175 176 182 181 187 180 179 176 181 182 185 189 175 160 181 142 203 113 128 73 83 22 40 44 46 67 78 82 72 46 57 73 95 108 130 110 119 139 159 163 168 160 152
180 181 185 189 190 186 187 184 189 190 190 188 201 191 184 136 137 122 142 170 81 9 38 68 296 86 74 75 71 48 66 102 85 115 71 67 97 132 135 133 161 166 172
184 185 188 191 193 192 188 191 190 196 202 203 206 207 200 176 201 116 197 138 123 324 79 13 58 18 121 101 64 59 44 36 79 122 289 49 39 86 162 156 156 189 187
188 189 190 192 195 196 195 197 197 198 208 208 213 216 206 200 215 232 118 163 304 12 307 97 33 110 112 102 120 114 23 35 172 123 81 356 10 136 124 192 188 175 199
194 192 194 195 197 199 201 204 203 206 209 212 215 214 198 193 217 166 173 175 287 294 309 26 26 13 33 79 93 359 342 307 315 164 128 330 331 89 118 111 146 197 212
195 196 197 199 203 204 203 205 204 209 209 215 213 217 208 209 215 240 261 244 263 314 313 345 17 93 354 36 269 302 316 174 167 255 99 153 167 197 41 87 114 111 124
197 200 201 202 203 205 206 205 207 211 212 214 213 213 228 232 243 239 236 259 303 310 348 273 34 22 9 6 19 336 75 148 129 129 154 164 157 139 205 271 193 166 134
202 203 205 206 204 207 207 210 210 213 217 215 214 221 234 240 248 246 245 242 287 273 285 272 175 274 5 321 321 137 129 135 144 149 129 189 164 212 216 230 256 248 268
204 205 207 207 210 207 208 208 210 213 215 214 214 221 239 238 246 246 236 243 264 264 246 276 267 324 323 332 114 129 133 119 140 137 130 114 95 145 195 237 211 249 281
205 207 208 211 213 213 212 210 210 213 218 218 222 227 234 232 234 239 241 233 251 263 290 234 228 249 293 5 138 158 160 146 153 156 157 116 110 111 74 84 184 189 184
205 206 208 211 212 216 209 212 213 213 213 221 221 227 228 228 230 237 249 246 253 255 280 278 271 251 269 293 189 188 160 151 169 188 198 187 146 117 87 64 97 108 136
207 208 210 213 215 215 216 212 214 213 216 221 223 228 226 232 234 237 247 251 241 245 245 275 261 224 236 244 218 221 202 154 200 164 211 217 204 194 182 137 114 104 85
206 208 210 213 219 216 219 213 219 217 221 221 223 226 234 232 237 236 236 242 243 243 249 244 266 245 241 209 212 212 215 223 227 243 199 203 229 229 236 214 214 209 165
208 207 209 213 219 220 220 220 221 220 213 217 223 225 227 233 237 240 232 239 238 236 240 254 255 252 231 230 216 213 209 206 226 216 229 235 240 221 233 239 238 229 237